Regional Weather Roundup
Issued by NWS

Home | Current Version | Previous Version | Graphics & Text | Print | Product List | Glossary On
Versions: 1 2 3 4 5 6 7 8 9 10 11 12 13 14 15 16 17 18 19 20 21 22 23 24 25 26 27 28 29 30 31 32 33 34 35 36 37 38 39 40 41 42 43 44 45 46 47 48 49 50
000
ASUS44 KMEG 250100
RWRTN
TENNESSEE HOURLY STATE WEATHER ROUNDUP
NATIONAL WEATHER SERVICE MEMPHIS TN
800 PM CDT TUE MAY 24 2016

TNZ002-004-019-021-049-052-054-088>092-250200-
WEST TENNESSEE

CITY           SKY/WX    TMP DP  RH WIND       PRES   REMARKS
MEMPHIS INTL   CLOUDY    83  64  52 S8        30.04R
NWS MEMPHIS      N/A     82 N/A N/A MISG        N/A
JACKSON        CLOUDY    74  68  81 CALM      30.05S
DYERSBURG      CLOUDY    70  64  83 N13       30.06S
UNION CITY     CLEAR     70  68  94 W9        30.06S
PARIS          CLEAR     72  63  73 CALM      30.07R
LEXINGTON      CLEAR     73  66  78 CALM      30.06S
$$

TNZ008-025-027-028-033-062-065-066-250200-
NORTH MIDDLE TENNESSEE

CITY           SKY/WX    TMP DP  RH WIND       PRES   REMARKS
NASHVILLE      PTCLDY    79  54  41 CALM      30.09S
CLARKSVILLE    CLEAR     76  58  53 S3        30.05F
COOKEVILLE     MOCLDY    73  64  73 CALM      30.10S
CROSSVILLE     PTCLDY    68  52  56 CALM      30.16S
$$

TNZ061-075-076-078-094-096-097-250200-
SOUTH MIDDLE TENNESSEE

CITY           SKY/WX    TMP DP  RH WIND       PRES   REMARKS
TULLAHOMA      CLEAR     73  57  56 CALM      30.13S
WINCHESTER     PTCLDY    75  55  50 S3        30.12S
MCMINNVILLE    CLEAR     73  57  56 CALM      30.12R
COLUMBIA       CLEAR     73  73 100 SE3       30.08S
SHELBYVILLE    CLEAR     75  59  57 CALM      30.11S
$$

TNZ017-018-042-046-047-250200-
NORTHEAST TENNESSEE

CITY           SKY/WX    TMP DP  RH WIND       PRES   REMARKS
TRI CITIES     PTCLDY    67  50  54 CALM      30.15S
$$

TNZ012-013-036-069-073-074-250200-
CENTRAL EAST TENNESSEE

CITY           SKY/WX    TMP DP  RH WIND       PRES   REMARKS
KNOXVILLE      PTCLDY    76  50  40 S6        30.11
OAK RIDGE      CLEAR     74  55  51 CALM      30.13R
GATLINBURG     CLEAR     68  50  52 CALM      30.13R
$$

TNZ083-085-099-250200-
SOUTHEAST TENNESSEE

CITY           SKY/WX    TMP DP  RH WIND       PRES   REMARKS
CHATTANOOGA    MOCLDY    80  53  39 SW5       30.11R
$$

SKY/WX REPORTED AS FAIR MEANS FEW OR NO CLOUDS BELOW
12 THOUSAND FEET.





USA.gov is the U.S. government's official web portal to all federal, state and local government web resources and services.